ATLAS 5 CENTAUR DEB, 44006

Orbit data source: Space-Track

ATLAS 5 CENTAUR DEB, 44006 is space debris in HEO originally from a launch on Wed, 17 Sep 2014 UTC launched from the Air Force Eastern Test Range (AFETR). Debris objects in space refer to the collection of defunct objects orbiting the Earth. Examples of debris include non-operational satellites, rocket bodies, and fragments generated from explosions, collisions, or faulty payload assembly.

Loading next visibility...
Identifier
44006, 2014-055BM
Orbit
HEO
Country
Flag of USUS
Related business
Flag of USUnited Launch Alliance/Lockheed Martin (US)
Manufacturer
Unknown
Mission
Spacecraft
Bus & Motor
Unknown
Mass
Unknown
Launch date (UTC)
2014-09-17 (12 years ago)
Launch vehicle
Unknown
Launch site
Air Force Eastern Test Range (AFETR)
Object type
Payload
Rocket body
Debris
Shape & HBR
Unknown shape, 1.1 m
Radar Cross Section
Small (<0.1 m²)

Expand to show TLE details & history
Last TLE update: 7 hours ago

TLE from 7 hours ago
0 ATLAS 5 CENTAUR DEB
1 44006U 14055BM  26121.20935612 -.00000034  00000-0  00000-0 0  9997
2 44006  20.5272 132.1751 4872321 188.9893 157.4558  1.88615452 52368
Epoch: 2026-05-01T05:01Z
TLE epoch observation values (Epoch: 2026-05-01T05:01:28.368Z)
Latitude
0.00001°
Longitude
-162.33097°
Altitude
34,269.492 km
Speed
2.282 km/s
True Right ascension
08h 48m 43s
True Declination
0° 00' 00"
Sunlit
Object was in daylight at epoch
Visualization orbit readout
Latitude
Unknown
Longitude
Unknown
Altitude
Unknown
Speed
Unknown
Apparent Right ascension
Unknown
Apparent Declination
Unknown
Sunlit
N/A
Visualization observer readout
Local Sidereal Time
19:20:21
Azimuth
Unknown
Elevation
Unknown
Doppler factor
Unknown
Orbital elements
Apogee altitude
34,777.242 km
Perigee altitude
7,811.415 km
Semi-major axis
27,672.466 km
Eccentricity
0.48723
Inclination
20.5272°
RAAN
132.1751°
Arg. of periapsis
188.9893°
True anomaly
171.03042°
Mean anomaly
157.4558°
Eccentric anomaly
164.78311°
Mean motion
0.47149 °/min
Orbital period
763.54 mins
BSTAR
0
Loading maneuver chart data...
Computing Atmospheric mass density...

Documentation

Showing up to 5 results
|